Location: Waco, TX
(31.5480°N, 97.1670°W)
Time: 19:07:49
(UTC-06:00)

ISS - Pass Details

Date: 07 January 2018
Orbit: 401 x 406 km, 51.6° (Epoch: 17 January)

Event Time Altitude Azimuth Distance (km) Brightness Sun altitude
Rises 03:22:24 0° 271° (W) 2,307 - -51.8°
Reaches altitude 10° 03:25:40 10° 307° (NW) 1,453 - -51.1°
Maximum altitude 03:26:51 12° 328° (NNW) 1,367 - -50.9°
Drops below altitude 10° 03:28:02 10° 350° (N) 1,456 - -50.6°
Sets 03:31:19 0° 25° (NNE) 2,320 - -49.9°
